Dewpoint
26 25 26 27 29 30 31 32 32 35 36 38 38 41 44 46 50 52 57 58 58 57 58 57 56 56 54
23 25 24 26 28 29 29 29 31 33 35 35 41 44 45 46 51 52 53 57 57 56 56 56 56 56 54
23 26 26 26 27 28 29 30 30 32 33 34 39 39 40 42 45 49 53 55 55 54 54 54 55 55 54
24 25 26 26 28 27 28 29 29 30 32 35 34 35 36 38 43 47 50 53 54 54 52 51 53 53 53
23 24 25 25 25 27 27 28 29 31 31 31 31 32 34 37 39 43 45 52 54 53 52 51 52 52 52
23 23 24 25 26 26 27 26 25 31 29 27 30 31 33 36 38 42 45 50 53 52 51 51 51 50 50
25 25 25 26 26 26 27 27 27 28 29 25 30 30 34 35 38 41 45 48 52 52 51 50 50 49 49
26 31 29 28 29 29 28 28 28 29 30 26 30 29 32 36 36 37 44 46 50 51 51 50 49 48 48
29 29 29 30 31 31 28 26 24 25 30 28 29 30 31 33 36 38 40 47 48 51 50 49 48 48 48
25 26 27 27 29 29 31 26 25 25 29 29 30 34 31 36 36 38 46 50 49 50 50 49 48 48 47
28 26 25 25 26 26 30 31 30 28 30 29 30 28 28 31 33 35 38 38 50 50 50 49 48 47 46
26 26 25 25 26 27 27 27 28 28 28 28 23 26 24 28 28 32 32 34 43 50 50 49 48 47 46
27 26 27 26 26 27 28 28 28 28 28 28 27 27 28 26 25 27 29 35 35 43 50 49 48 48 46
28 28 28 27 26 27 26 26 26 26 28 29 28 27 28 27 27 27 30 30 34 35 47 49 49 48 47
28 27 27 27 27 27 26 26 25 24 25 26 30 31 31 29 26 27 29 31 33 35 37 46 48 48 46
26 26 27 27 26 28 27 27 26 25 26 26 27 27 28 30 31 28 28 30 33 35 36 37 46 48 47
24 25 25 26 27 26 26 26 25 24 23 26 26 26 23 21 27 33 28 30 31 33 35 37 43 46 46
Lifted_Index
20 20 19 20 20 21 22 22 21 21 21 19 17 13 10 8 6 3 2 2 2 3 5 7 8 9 10
20 20 19 19 20 21 21 22 22 21 21 20 18 15 11 8 6 4 2 2 2 3 5 7 8 9 10
19 19 19 19 19 19 20 21 21 21 21 21 20 17 14 10 7 5 3 2 2 3 5 7 8 9 10
18 18 19 19 19 19 19 20 20 21 21 21 20 19 16 11 8 6 4 3 3 3 5 7 9 9 10
16 16 17 17 18 18 18 18 19 20 20 20 20 19 18 14 9 7 5 3 3 3 4 6 8 10 10
14 14 15 16 16 17 18 17 18 19 20 19 19 19 19 16 12 8 6 5 4 3 4 6 8 9 10
13 13 13 14 15 16 17 17 17 19 19 19 19 19 19 18 14 10 7 6 4 4 4 5 7 9 10
12 12 12 13 14 15 16 16 17 18 19 19 19 19 19 19 16 12 9 6 5 4 4 5 6 8 9
11 11 11 12 13 14 15 16 16 17 18 19 19 19 19 18 16 14 11 8 6 5 4 4 5 7 9
10 10 10 10 11 13 14 15 15 16 17 18 18 19 18 17 16 14 12 9 7 6 5 4 5 7 8
9 9 9 9 10 11 13 14 15 15 16 17 18 18 18 17 16 14 12 10 8 6 5 5 5 6 6
9 9 9 9 9 10 12 13 14 15 17 18 18 18 18 18 16 14 12 10 9 7 6 6 6 6 6
8 8 8 8 8 9 10 12 13 15 16 17 18 18 18 18 17 15 13 11 9 8 8 7 7 7 7
8 8 8 8 8 8 9 10 11 13 14 16 17 18 18 18 17 16 14 12 10 9 8 8 8 8 8
8 8 8 8 8 8 8 9 10 11 12 14 16 17 17 17 17 17 15 13 11 10 9 9 8 8 8
9 8 8 8 8 8 8 8 9 9 11 13 15 16 16 16 17 17 16 13 12 11 10 9 9 8 8
9 8 8 8 8 8 8 8 8 9 10 12 14 15 15 15 16 17 16 14 12 11 10 9 9 9 9